Simultaneous Nadir Overpasses (SNOs) Predictions

Prediction of SNOs between FY3D and TERRA Satellite Orbit:

Table of predicted SNOs for the next 14.0 days since TLE Epoch: 7/18/2020
Index Date (FY3D) Time (FY3D) Lat,Lon (FY3D) SZA (FY3D ) Date (TERRA) Time (TERRA) Lat,Lon (TERRA) SZA (TERRA ) Distance(km) Time Diff (sec)
1 07/20/2020 03:39:24 68.93, 124.45 48.26 07/20/2020 03:39:52 68.92, 124.49 48.24 2.66 28
2 07/20/2020 04:30:05 -68.79, -68.04 131.88 07/20/2020 04:29:22 -68.81, -68.02 131.86 2.02 43
3 07/22/2020 19:55:47 68.93,-119.63 48.79 07/22/2020 19:56:21 68.93,-119.61 48.78 0.79 34
4 07/22/2020 20:46:29 -68.83, 47.81 131.31 07/22/2020 20:45:51 -68.82, 47.88 131.32 2.95 38
5 07/25/2020 12:12:09 68.92, -3.71 49.35 07/25/2020 12:12:49 68.94, -3.72 49.36 2.13 40
6 07/25/2020 13:02:51 -68.82, 163.74 130.75 07/25/2020 13:02:19 -68.84, 163.78 130.73 2.28 32
7 07/28/2020 04:28:33 68.97, 112.13 50.01 07/28/2020 04:29:18 68.94, 112.16 49.97 3.06 45
8 07/28/2020 05:19:14 -68.82, -80.34 130.15 07/28/2020 05:18:48 -68.85, -80.33 130.12 3.11 26
9 07/30/2020 20:44:56 68.97,-131.95 50.64 07/30/2020 20:45:47 68.94,-131.96 50.62 2.52 51
10 07/30/2020 21:35:38 -68.87, 35.51 129.45 07/30/2020 21:35:17 -68.85, 35.55 129.47 2.77 21
11 07/30/2020 22:26:05 67.89,-155.91 49.56 07/30/2020 22:24:58 67.94,-157.90 49.66 83.26 67
